{"data":{"norad_id":46687,"epoch":"2026-07-12T16:23:35.120832Z","epoch_age_seconds":6054117,"freshness":"OLD","line1":"1 46687U 20073T   26193.68304538  .03871510  12093-4  91056-3 0  9999","line2":"2 46687  53.0206 279.9352 0012083 324.1039  35.9190 16.28747795317657","mean_motion":16.28747795,"eccentricity":0.0012083,"inclination_deg":53.0206,"raan_deg":279.9352,"arg_perigee_deg":324.1039,"mean_anomaly_deg":35.919,"bstar":0.00091056,"rev_number":31765,"period_min":88.411478095048,"perigee_km":187.96369841293,"apogee_km":203.85053342346,"semimajor_km":6574.0441159182,"source":"CELESTRAK","updated_at":"2026-07-13T09:00:41.688766Z"}}